When you browse on this site, cookies collect data to enhance your experience and personalize the content and advertising you see.
Visit our Privacy Policy to learn more. By continuing to use the site, you agree to this use of cookies and data.
  • In Schweiz
  • Länderverzeichnis
  • Für 7 Tage
  • Wassertemperatur
  • Wetterkarte
  • Widgets
  • user-avatar
    Anmelden

    Stündliche Wetter Armagh

    Heute, 5 Juni, Freitag

    Zeit Temperatur Niederschläge Wind Luftdruck Luftfeuchtigkeit
    00:00 +6°C° 0 mm 4 m/S 746 mmHg 89%
    01:00 +6°C° 0 mm 4 m/S 746 mmHg 90%
    02:00 +5°C° 0 mm 4 m/S 746 mmHg 91%
    03:00 +5°C° 0 mm 4 m/S 745 mmHg 91%
    04:00 +5°C° 0 mm 4 m/S 745 mmHg 89%
    05:00 +6°C° 0 mm 4 m/S 745 mmHg 87%
    06:00 +6°C° 0 mm 5 m/S 746 mmHg 84%
    07:00 +7°C° 0.2 mm 5 m/S 745 mmHg 83%
    08:00 +8°C° 0.2 mm 6 m/S 745 mmHg 81%
    09:00 +9°C° 0.2 mm 6 m/S 745 mmHg 79%
    10:00 +9°C° 0.3 mm 7 m/S 745 mmHg 74%
    11:00 +10°C° 0.3 mm 7 m/S 745 mmHg 70%
    12:00 +10°C° 0.3 mm 8 m/S 745 mmHg 66%
    13:00 +10°C° 0.4 mm 8 m/S 745 mmHg 66%
    14:00 +10°C° 0.4 mm 9 m/S 745 mmHg 67%
    15:00 +10°C° 0.4 mm 9 m/S 746 mmHg 67%
    16:00 +8°C° 0.1 mm 9 m/S 746 mmHg 66%
    17:00 +7°C° 0.1 mm 9 m/S 746 mmHg 65%
    18:00 +7°C° 0.1 mm 9 m/S 746 mmHg 64%
    19:00 +6°C° 0.1 mm 9 m/S 746 mmHg 68%
    20:00 +5°C° 0.1 mm 8 m/S 745 mmHg 73%
    21:00 +4°C° 0.1 mm 8 m/S 745 mmHg 77%
    22:00 +5°C° 0.1 mm 8 m/S 745 mmHg 79%
    23:00 +5°C° 0.1 mm 9 m/S 744 mmHg 81%

    Morgen, 6 Juni, Samstag

    Zeit Temperatur Niederschläge Wind Luftdruck Luftfeuchtigkeit
    00:00 +5°C° 0.1 mm 9 m/S 744 mmHg 83%
    01:00 +6°C° 0.8 mm 9 m/S 743 mmHg 87%
    02:00 +6°C° 0.8 mm 8 m/S 743 mmHg 91%
    03:00 +7°C° 0.8 mm 8 m/S 743 mmHg 95%
    04:00 +7°C° 0.4 mm 8 m/S 743 mmHg 95%
    05:00 +8°C° 0.4 mm 7 m/S 743 mmHg 95%
    06:00 +9°C° 0.4 mm 7 m/S 743 mmHg 94%
    07:00 +9°C° 0.2 mm 7 m/S 744 mmHg 94%
    08:00 +9°C° 0.2 mm 7 m/S 744 mmHg 93%
    09:00 +9°C° 0.2 mm 7 m/S 745 mmHg 93%
    10:00 +10°C° 0.1 mm 7 m/S 745 mmHg 89%
    11:00 +11°C° 0.1 mm 8 m/S 746 mmHg 85%
    12:00 +11°C° 0.1 mm 8 m/S 746 mmHg 81%
    13:00 +11°C° 0.1 mm 8 m/S 746 mmHg 83%
    14:00 +10°C° 0.1 mm 7 m/S 747 mmHg 85%
    15:00 +10°C° 0.1 mm 7 m/S 747 mmHg 87%
    16:00 +10°C° 0.2 mm 7 m/S 747 mmHg 89%
    17:00 +9°C° 0.2 mm 6 m/S 747 mmHg 91%
    18:00 +9°C° 0.2 mm 6 m/S 747 mmHg 93%
    19:00 +9°C° 0.1 mm 6 m/S 747 mmHg 92%
    20:00 +9°C° 0.1 mm 6 m/S 748 mmHg 92%
    21:00 +9°C° 0.1 mm 6 m/S 748 mmHg 91%
    22:00 +9°C° 0 mm 6 m/S 748 mmHg 90%
    23:00 +9°C° 0 mm 6 m/S 749 mmHg 88%

    übermorgen, 7 Juni, Sonntag

    Zeit Temperatur Niederschläge Wind Luftdruck Luftfeuchtigkeit
    00:00 +9°C° 0 mm 7 m/S 749 mmHg 87%
    01:00 +9°C° 0 mm 6 m/S 749 mmHg 86%
    02:00 +9°C° 0 mm 6 m/S 750 mmHg 85%
    03:00 +8°C° 0 mm 6 m/S 750 mmHg 84%
    04:00 +9°C° 0 mm 6 m/S 750 mmHg 83%
    05:00 +9°C° 0 mm 6 m/S 751 mmHg 81%
    06:00 +9°C° 0 mm 6 m/S 751 mmHg 80%
    07:00 +10°C° 0 mm 6 m/S 752 mmHg 78%
    08:00 +11°C° 0 mm 6 m/S 752 mmHg 76%
    09:00 +12°C° 0 mm 7 m/S 753 mmHg 74%
    10:00 +13°C° 0 mm 6 m/S 753 mmHg 73%
    11:00 +14°C° 0 mm 6 m/S 754 mmHg 72%
    12:00 +14°C° 0 mm 6 m/S 754 mmHg 71%
    13:00 +15°C° 0 mm 6 m/S 754 mmHg 70%
    14:00 +15°C° 0 mm 6 m/S 755 mmHg 70%
    15:00 +15°C° 0 mm 6 m/S 755 mmHg 70%
    16:00 +14°C° 0 mm 6 m/S 755 mmHg 71%
    17:00 +13°C° 0 mm 6 m/S 755 mmHg 72%
    18:00 +13°C° 0 mm 5 m/S 755 mmHg 73%
    19:00 +10°C° 0 mm 5 m/S 756 mmHg 77%
    20:00 +10°C° 0 mm 4 m/S 757 mmHg 80%
    21:00 +8°C° 0 mm 4 m/S 757 mmHg 84%
    22:00 +8°C° 0 mm 3 m/S 757 mmHg 86%
    23:00 +7°C° 0 mm 3 m/S 757 mmHg 88%

    8 Juni, Montag

    Zeit Temperatur Niederschläge Wind Luftdruck Luftfeuchtigkeit
    00:00 +7°C° 0 mm 3 m/S 757 mmHg 91%
    01:00 +5°C° 0 mm 3 m/S 757 mmHg 91%
    02:00 +5°C° 0 mm 3 m/S 758 mmHg 91%
    03:00 +6°C° 0 mm 2 m/S 758 mmHg 91%
    04:00 +5°C° 0 mm 3 m/S 758 mmHg 89%
    05:00 +7°C° 0 mm 3 m/S 758 mmHg 87%
    06:00 +7°C° 0 mm 3 m/S 758 mmHg 85%
    07:00 +8°C° 0 mm 3 m/S 759 mmHg 82%
    08:00 +9°C° 0 mm 3 m/S 759 mmHg 79%
    09:00 +10°C° 0 mm 3 m/S 760 mmHg 76%
    10:00 +11°C° 0 mm 3 m/S 760 mmHg 75%
    11:00 +12°C° 0 mm 2 m/S 760 mmHg 73%
    12:00 +13°C° 0 mm 2 m/S 760 mmHg 72%
    13:00 +13°C° 0.1 mm 2 m/S 760 mmHg 73%
    14:00 +13°C° 0.1 mm 2 m/S 760 mmHg 74%
    15:00 +14°C° 0.1 mm 1 m/S 760 mmHg 75%
    16:00 +13°C° 0.1 mm 2 m/S 761 mmHg 76%
    17:00 +13°C° 0.1 mm 2 m/S 761 mmHg 78%
    18:00 +13°C° 0.1 mm 2 m/S 761 mmHg 79%
    19:00 +12°C° 0 mm 2 m/S 761 mmHg 83%
    20:00 +9°C° 0 mm 2 m/S 761 mmHg 87%
    21:00 +8°C° 0 mm 2 m/S 762 mmHg 91%
    22:00 +7°C° 0 mm 2 m/S 762 mmHg 92%
    23:00 +6°C° 0 mm 2 m/S 762 mmHg 94%

    9 Juni, Dienstag

    Zeit Temperatur Niederschläge Wind Luftdruck Luftfeuchtigkeit
    00:00 +6°C° 0 mm 1 m/S 762 mmHg 95%
    01:00 +6°C° 0 mm 1 m/S 762 mmHg 95%
    02:00 +6°C° 0 mm 1 m/S 762 mmHg 95%
    03:00 +5°C° 0 mm 1 m/S 762 mmHg 95%
    04:00 +6°C° 0 mm 1 m/S 763 mmHg 93%
    05:00 +7°C° 0 mm 1 m/S 763 mmHg 92%
    06:00 +8°C° 0 mm 1 m/S 763 mmHg 90%
    07:00 +10°C° 0 mm 1 m/S 763 mmHg 86%
    08:00 +11°C° 0 mm 1 m/S 763 mmHg 83%
    09:00 +12°C° 0 mm 1 m/S 764 mmHg 79%
    10:00 +13°C° 0 mm 1 m/S 764 mmHg 75%
    11:00 +14°C° 0 mm 1 m/S 764 mmHg 72%
    12:00 +15°C° 0 mm 1 m/S 764 mmHg 68%
    13:00 +15°C° 0 mm 1 m/S 764 mmHg 69%
    14:00 +15°C° 0 mm 2 m/S 764 mmHg 71%
    15:00 +14°C° 0 mm 2 m/S 764 mmHg 72%
    16:00 +14°C° 0 mm 2 m/S 764 mmHg 73%
    17:00 +14°C° 0 mm 2 m/S 764 mmHg 74%
    18:00 +14°C° 0 mm 2 m/S 764 mmHg 74%
    19:00 +13°C° 0 mm 2 m/S 765 mmHg 78%
    20:00 +12°C° 0 mm 2 m/S 765 mmHg 81%
    21:00 +11°C° 0 mm 1 m/S 765 mmHg 85%
    22:00 +10°C° 0 mm 1 m/S 765 mmHg 84%
    23:00 +10°C° 0 mm 1 m/S 765 mmHg 83%

    10 Juni, Mittwoch

    Zeit Temperatur Niederschläge Wind Luftdruck Luftfeuchtigkeit
    00:00 +9°C° 0 mm 1 m/S 766 mmHg 83%
    01:00 +9°C° 0 mm 1 m/S 766 mmHg 81%
    02:00 +8°C° 0 mm 0 m/S 766 mmHg 79%
    03:00 +8°C° 0 mm 0 m/S 765 mmHg 77%
    04:00 +9°C° 0 mm 0 m/S 766 mmHg 77%
    05:00 +9°C° 0 mm 0 m/S 766 mmHg 77%
    06:00 +10°C° 0 mm 0 m/S 766 mmHg 77%
    07:00 +11°C° 0 mm 0 m/S 766 mmHg 74%
    08:00 +13°C° 0 mm 0 m/S 766 mmHg 70%
    09:00 +14°C° 0 mm 0 m/S 766 mmHg 66%
    10:00 +16°C° 0 mm 1 m/S 766 mmHg 64%
    11:00 +18°C° 0 mm 1 m/S 766 mmHg 62%
    12:00 +19°C° 0 mm 1 m/S 766 mmHg 60%
    13:00 +19°C° 0 mm 1 m/S 766 mmHg 61%
    14:00 +19°C° 0 mm 1 m/S 766 mmHg 62%
    15:00 +19°C° 0 mm 1 m/S 766 mmHg 62%
    16:00 +19°C° 0 mm 1 m/S 766 mmHg 65%
    17:00 +18°C° 0 mm 1 m/S 766 mmHg 68%
    18:00 +18°C° 0 mm 1 m/S 766 mmHg 71%
    19:00 +15°C° 0 mm 1 m/S 766 mmHg 77%
    20:00 +13°C° 0 mm 1 m/S 766 mmHg 83%
    21:00 +12°C° 0 mm 1 m/S 766 mmHg 89%
    22:00 +11°C° 0 mm 1 m/S 766 mmHg 89%
    23:00 +10°C° 0 mm 1 m/S 765 mmHg 89%
    Mehr zeigen